This demonstration page uses our WeatherBlox Daily Observations layout. Learn more.

Left ArrowRight Arrow

44.8408, -93.29828

Hourly Observations for March 5, 2017

Temp ( °F °C ) Dew Point ( °F °C ) Humidity (%) Winds ( mph kmh ) Pressure ( in mb ) Visibility ( mi km ) Precip ( " mm )
12:53 am 00:53 Mostly Cloudy 36 2.2 28 -2.2 73 73 SE 22 35 29.97 1015 10 16 0.00 0.00
1:53 am 01:53 Mostly Cloudy 36 2.2 29 -1.7 76 76 SSE 18 30 29.96 1014 10 16 0.00 0.00
2:53 am 02:53 Mostly Cloudy 36 2.2 29 -1.7 76 76 SE 10 17 29.94 1014 10 16 0.00 0.00
3:53 am 03:53 Partly Cloudy 35 1.7 29 -1.7 78 78 SE 10 17 29.92 1013 10 16 0.00 0.00
4:53 am 04:53 Partly Cloudy 37 2.8 29 -1.7 73 73 SSE 9 15 29.91 1013 10 16 0.00 0.00
5:53 am 05:53 Partly Cloudy 38 3.3 30 -1.1 73 73 SSE 15 24 29.90 1012 10 16 0.00 0.00
6:53 am 06:53 Partly Cloudy 39 3.9 30 -1.1 70 70 SSE 14 22 29.90 1012 10 16 0.00 0.00
7:42 am 07:42 Mostly Cloudy 39 4 30 -1 70 70 SSE 14 22 29.91 1013 10 16 0.00 0.00
7:53 am 07:53 Mostly Cloudy 41 5 32 0 70 70 SSE 14 22 29.89 1012 10 16 0.00 0.00
8:53 am 08:53 Cloudy 44 6.7 33 0.6 65 65 S 15 24 29.88 1012 10 16 0.00 0.00
9:53 am 09:53 Cloudy 46 7.8 35 1.7 66 66 S 10 17 29.88 1012 10 16 0.00 0.00
10:53 am 10:53 Mostly Cloudy 52 11.1 40 4.4 64 64 S 14 22 29.87 1011 10 16 0.00 0.00
11:53 am 11:53 Mostly Cloudy 56 13.3 42 5.6 60 60 S 15 24 29.85 1011 10 16 0.00 0.00
12:53 pm 12:53 Mostly Cloudy 58 14.4 43 6.1 58 58 S 17 28 29.81 1010 10 16 0.00 0.00
1:53 pm 13:53 Partly Cloudy 59 15 43 6.1 56 56 S 15 24 29.79 1009 10 16 0.00 0.00
2:53 pm 14:53 Mostly Cloudy 58 14.4 45 7.2 62 62 S 16 26 29.79 1009 10 16 0.00 0.00
3:35 pm 15:35 Cloudy 57 13.9 45 7.2 64 64 S 14 22 29.77 1008 10 16 0.00 0.00
3:42 pm 15:42 Cloudy 57 14 45 7 63 63 S 13 20 29.77 1008 10 16 0.00 0.00
3:53 pm 15:53 Cloudy 56 13.3 45 7.2 67 67 SSE 13 20 29.79 1009 10 16 0.00 0.00
4:53 pm 16:53 Cloudy 53 11.7 43 6.1 69 69 SSE 12 19 29.80 1009 10 16 0.00 0.00
5:53 pm 17:53 Cloudy 52 11.1 43 6.1 72 72 SSE 16 26 29.79 1009 10 16 0.00 0.00
6:21 pm 18:21 Cloudy 51 10.6 43 6.1 74 74 S 13 20 29.80 1009 10 16 0.00 0.00
6:53 pm 18:53 Cloudy 51 10.6 44 6.7 77 77 SSE 13 20 29.79 1009 10 16 0.00 0.00
7:53 pm 19:53 Cloudy 51 10.6 44 6.7 77 77 SSE 10 17 29.78 1009 10 16 0.00 0.00
8:53 pm 20:53 Cloudy 50 10 44 6.7 80 80 SSE 9 15 29.76 1008 10 16 0.00 0.00
9:53 pm 21:53 Cloudy 50 10 44 6.7 80 80 SSE 12 19 29.76 1008 10 16 0.00 0.00
10:53 pm 22:53 Cloudy 50 10 44 6.7 80 80 SSE 10 17 29.73 1007 10 16 0.00 0.00
11:53 pm 23:53 Cloudy 50 10 44 6.7 80 80 SSE 14 22 29.70 1006 10 16 0.00 0.00

Powered by AerisWeather